TimeCST,TemperatureF,Dew PointF,Humidity,Sea Level PressureIn,VisibilityMPH,Wind Direction,Wind SpeedMPH,Gust SpeedMPH,PrecipitationIn,Events,Conditions,WindDirDegrees,DateUTC
12:13 AM,30.2,24.8,80,30.07,10.0,NE,19.6,-,N/A,,Overcast,40,2013-02-28 06:13:00
12:33 AM,30.2,23.0,75,30.07,10.0,NNE,18.4,-,N/A,,Overcast,20,2013-02-28 06:33:00
12:54 AM,30.2,23.0,75,30.08,10.0,NNE,15.0,-,N/A,,Overcast,30,2013-02-28 06:54:00
1:13 AM,30.2,23.0,75,30.08,10.0,NNE,17.3,-,N/A,,Overcast,30,2013-02-28 07:13:00
1:33 AM,30.2,23.0,75,30.09,10.0,NE,17.3,-,N/A,,Overcast,40,2013-02-28 07:33:00
1:54 AM,30.2,23.0,75,30.09,10.0,NE,15.0,-,N/A,,Overcast,40,2013-02-28 07:54:00
2:13 AM,30.2,23.0,75,30.09,10.0,NNE,19.6,23.0,N/A,,Overcast,30,2013-02-28 08:13:00
2:33 AM,28.4,23.0,80,30.09,10.0,NNE,19.6,-,N/A,,Overcast,30,2013-02-28 08:33:00
2:54 AM,28.4,23.0,80,30.10,10.0,NNE,12.7,-,N/A,,Overcast,20,2013-02-28 08:54:00
3:13 AM,28.4,21.2,74,30.10,10.0,NNE,13.8,-,N/A,,Overcast,30,2013-02-28 09:13:00
3:53 AM,28.4,21.2,74,30.11,10.0,NNE,13.8,19.6,N/A,,Overcast,30,2013-02-28 09:53:00
4:34 AM,28.4,21.2,74,30.13,10.0,NNE,12.7,-,N/A,,Overcast,30,2013-02-28 10:34:00
4:53 AM,28.4,21.2,74,30.13,10.0,NNE,12.7,-,N/A,,Overcast,20,2013-02-28 10:53:00
5:13 AM,28.4,21.2,74,30.14,10.0,NNE,18.4,-,N/A,,Overcast,20,2013-02-28 11:13:00
5:34 AM,28.4,21.2,74,30.14,10.0,NNE,17.3,-,N/A,,Overcast,20,2013-02-28 11:34:00
6:13 AM,28.4,21.2,74,30.15,10.0,North,12.7,-,N/A,,Overcast,10,2013-02-28 12:13:00
6:33 AM,28.4,21.2,74,30.16,10.0,NNE,12.7,-,N/A,,Overcast,20,2013-02-28 12:33:00
6:54 AM,26.6,21.2,80,30.16,10.0,NNE,13.8,-,N/A,,Overcast,20,2013-02-28 12:54:00
7:13 AM,26.6,21.2,80,30.17,10.0,NNE,15.0,-,N/A,,Overcast,20,2013-02-28 13:13:00
7:33 AM,26.6,21.2,80,30.18,10.0,NNE,17.3,-,N/A,,Overcast,30,2013-02-28 13:33:00
8:13 AM,26.6,19.4,74,30.19,10.0,NE,18.4,24.2,N/A,,Overcast,40,2013-02-28 14:13:00
8:33 AM,26.6,19.4,74,30.19,10.0,NE,17.3,-,N/A,,Overcast,40,2013-02-28 14:33:00
8:54 AM,26.6,19.4,74,30.19,10.0,NNE,18.4,-,N/A,,Overcast,30,2013-02-28 14:54:00
9:13 AM,26.6,19.4,74,30.19,10.0,NNE,20.7,-,N/A,,Overcast,30,2013-02-28 15:13:00
9:33 AM,26.6,19.4,74,30.20,10.0,NE,17.3,-,N/A,,Overcast,40,2013-02-28 15:33:00
9:54 AM,26.6,19.4,74,30.21,10.0,NNE,16.1,-,N/A,,Overcast,30,2013-02-28 15:54:00
10:13 AM,26.6,19.4,74,30.21,10.0,NNE,17.3,-,N/A,,Overcast,30,2013-02-28 16:13:00
10:33 AM,26.6,19.4,74,30.22,10.0,NNE,17.3,-,N/A,,Overcast,30,2013-02-28 16:33:00
10:54 AM,26.6,19.4,74,30.22,10.0,NNE,16.1,19.6,N/A,,Overcast,20,2013-02-28 16:54:00
11:13 AM,26.6,19.4,74,30.22,10.0,NE,17.3,-,N/A,,Overcast,40,2013-02-28 17:13:00
11:33 AM,26.6,19.4,74,30.22,10.0,NNE,17.3,-,N/A,,Overcast,30,2013-02-28 17:33:00
11:54 AM,26.6,19.4,74,30.22,10.0,NE,16.1,25.3,N/A,,Overcast,40,2013-02-28 17:54:00
12:13 PM,28.4,19.4,69,30.22,10.0,NNE,19.6,-,N/A,,Overcast,30,2013-02-28 18:13:00
12:34 PM,28.4,19.4,69,30.23,10.0,NE,17.3,24.2,N/A,,Overcast,40,2013-02-28 18:34:00
12:53 PM,28.4,19.4,69,30.23,10.0,NE,16.1,25.3,N/A,,Overcast,40,2013-02-28 18:53:00
1:13 PM,28.4,19.4,69,30.23,10.0,NE,16.1,20.7,N/A,,Overcast,50,2013-02-28 19:13:00
1:34 PM,28.4,19.4,69,30.22,10.0,ENE,16.1,-,N/A,,Scattered Clouds,60,2013-02-28 19:34:00
1:53 PM,28.4,21.2,74,30.22,10.0,ENE,16.1,-,N/A,,Clear,60,2013-02-28 19:53:00
2:13 PM,28.4,19.4,69,30.22,10.0,ENE,16.1,-,N/A,,Clear,70,2013-02-28 20:13:00
2:34 PM,28.4,21.2,74,30.23,10.0,ENE,15.0,-,N/A,,Clear,70,2013-02-28 20:34:00
3:34 PM,28.4,19.4,69,30.24,10.0,ENE,16.1,-,N/A,,Clear,60,2013-02-28 21:34:00
3:53 PM,28.4,21.2,74,30.24,10.0,ENE,16.1,-,N/A,,Clear,60,2013-02-28 21:53:00
4:13 PM,28.4,21.2,74,30.24,10.0,ENE,15.0,-,N/A,,Clear,70,2013-02-28 22:13:00
4:34 PM,26.6,19.4,74,30.24,10.0,ENE,16.1,-,N/A,,Clear,70,2013-02-28 22:34:00
4:53 PM,26.6,19.4,74,30.25,10.0,ENE,15.0,-,N/A,,Clear,70,2013-02-28 22:53:00
5:13 PM,26.6,19.4,74,30.25,10.0,ENE,15.0,-,N/A,,Clear,70,2013-02-28 23:13:00
5:34 PM,26.6,19.4,74,30.26,10.0,ENE,15.0,-,N/A,,Clear,60,2013-02-28 23:34:00
5:53 PM,26.6,19.4,74,30.26,10.0,ENE,15.0,-,N/A,,Clear,60,2013-02-28 23:53:00
6:13 PM,26.6,19.4,74,30.26,10.0,ENE,16.1,-,N/A,,Clear,70,2013-03-01 00:13:00
6:34 PM,26.6,19.4,74,30.27,10.0,ENE,17.3,-,N/A,,Clear,60,2013-03-01 00:34:00
6:53 PM,26.6,19.4,74,30.27,10.0,ENE,15.0,-,N/A,,Clear,60,2013-03-01 00:53:00
7:13 PM,26.6,19.4,74,30.27,10.0,ENE,16.1,-,N/A,,Clear,60,2013-03-01 01:13:00
7:34 PM,24.8,19.4,80,30.28,10.0,ENE,13.8,-,N/A,,Clear,70,2013-03-01 01:34:00
7:53 PM,24.8,19.4,80,30.28,10.0,ENE,16.1,-,N/A,,Mostly Cloudy,70,2013-03-01 01:53:00
8:13 PM,26.6,19.4,74,30.28,10.0,ENE,13.8,-,N/A,,Mostly Cloudy,70,2013-03-01 02:13:00
8:34 PM,24.8,21.2,86,30.28,10.0,East,11.5,-,N/A,,Mostly Cloudy,80,2013-03-01 02:34:00
9:14 PM,24.8,19.4,80,30.29,10.0,East,9.2,-,N/A,,Scattered Clouds,100,2013-03-01 03:14:00
9:34 PM,24.8,19.4,80,30.29,10.0,East,11.5,-,N/A,,Scattered Clouds,90,2013-03-01 03:34:00
9:53 PM,24.8,19.4,80,30.29,10.0,East,10.4,-,N/A,,Mostly Cloudy,90,2013-03-01 03:53:00
10:14 PM,24.8,19.4,80,30.30,10.0,East,8.1,-,N/A,,Overcast,100,2013-03-01 04:14:00
10:33 PM,24.8,19.4,80,30.30,10.0,East,8.1,-,N/A,,Overcast,100,2013-03-01 04:33:00
10:54 PM,24.8,17.6,74,30.30,10.0,East,6.9,-,N/A,,Overcast,90,2013-03-01 04:54:00
11:34 PM,24.8,17.6,74,30.30,10.0,East,6.9,-,N/A,,Overcast,90,2013-03-01 05:34:00
11:53 PM,24.8,17.6,74,30.30,10.0,ENE,21.9,-,N/A,,Mostly Cloudy,70,2013-03-01 05:53:00